User: anonymous   Login
Location: Powder Track
(41.8531°N, 72.3584°W)
Time: 07:26:37
(UTC+00:00)
Language:

Tiros 1 - Orbit

View from above orbital plane
View from above orbital plane
View from above satellite
View from above satellite

Ground track
Ground track

The orbit data is extracted from the following two-line orbital elements,

1 00029U 60002B   21204.73085143 -.00000096  00000-0  16774-4 0  9994
2 00029  48.3780 214.7507 0023669 150.8125 209.4114 14.74440825277755
Epoch (UTC): 23 July 2021 17:32:25
Eccentricity: 0.0023669
inclination: 48.3780°
perigee height: 630 km
apogee height: 663 km
right ascension of ascending node: 214.7507°
argument of perigee: 150.8125°
revolutions per day: 14.74440825
mean anomaly at epoch: 209.4114°
orbit number at epoch: 27775

The dashed part of the orbit path shows where the satellite is in the earth's shadow,  

DLR